Location: Igon
(43.1667°N, 0.2333°W)
Time: 09:48:56
(UTC+00:00)

Cosmos 923 Rocket - Pass Details

Date: 29 November 2020
Orbit: 757 x 786 km, 74.0° (Epoch: 23 January)

Event Time Altitude Azimuth Distance (km) Brightness Sun altitude
Exits shadow 05:34:03 26° 311° (NW) 1,504 5.0 -17.2°
Maximum altitude 05:36:32 42° 257° (WSW) 1,094 4.4 -16.8°
Drops below altitude 10° 05:41:30 10° 187° (S) 2,329 6.6 -15.9°
Sets 05:43:59 0° 181° (S) 3,256 7.4 -15.5°
